Wind_Speed
8 6 6 7 8 9 12 13 15 16 17 19 21 21 22 24 25 24 25 26 25 25 26 26 28 28 28 28 28 28 28 27 18 33 31 30 32 30 32 37 33 30 36
6 6 6 8 11 13 15 16 16 17 18 19 20 22 23 24 25 26 26 25 25 26 27 26 29 28 30 30 30 31 30 30 29 30 31 31 32 31 32 32 32 34 34
5 6 8 9 12 14 16 17 17 18 20 21 21 21 23 24 26 27 27 28 28 28 30 30 34 31 33 33 33 32 31 30 30 32 30 30 31 28 27 30 31 32 34
5 6 9 12 14 15 15 16 18 18 18 20 21 23 23 25 26 27 26 28 30 32 34 35 37 35 36 38 35 34 32 30 29 31 29 29 29 27 26 27 28 25 29
5 6 9 12 13 15 16 17 16 17 18 19 21 22 23 24 24 24 27 30 32 34 38 37 37 37 37 39 35 34 31 30 29 27 25 26 26 23 22 23 24 27 29
5 7 10 12 13 14 15 16 18 18 19 20 21 23 24 23 20 23 24 27 28 29 23 27 28 29 31 34 37 43 38 37 34 29 27 24 27 23 23 21 20 20 9
7 9 10 12 13 11 16 17 18 19 20 21 21 21 23 25 21 22 24 27 25 26 28 28 27 26 27 29 32 33 36 39 40 34 34 34 31 29 28 26 25 23 24
7 9 10 8 12 16 16 17 19 20 21 21 22 22 24 26 22 22 23 26 25 29 30 27 27 29 29 28 29 34 36 38 41 39 33 31 30 29 29 29 28 27 30
7 8 8 12 14 15 17 18 20 21 21 22 21 24 26 27 22 21 23 23 25 26 24 24 22 26 27 27 28 23 33 39 39 38 38 38 37 34 31 27 26 23 15
5 7 11 12 15 15 17 19 21 20 22 20 22 24 23 24 21 20 23 22 20 22 24 19 21 24 27 27 28 27 25 25 33 31 32 36 37 36 31 31 25 21 19
7 11 12 13 13 14 16 18 20 18 19 20 22 24 23 20 21 20 21 22 20 23 16 20 21 26 26 28 27 24 23 29 25 29 30 29 28 27 29 30 31 28 23
9 12 13 14 12 14 17 18 16 18 18 21 24 25 25 21 22 20 21 21 23 22 22 21 26 24 28 25 23 23 24 24 22 16 23 23 25 25 28 29 29 30 31
10 12 13 13 13 15 13 15 17 17 19 23 19 20 23 23 24 21 22 22 23 24 23 26 24 23 23 21 19 21 20 19 19 14 10 22 25 29 26 25 26 30 31
10 13 13 13 15 15 15 15 16 19 20 18 19 17 19 21 23 25 27 21 24 19 23 13 16 18 17 17 18 18 18 18 18 14 14 15 16 24 23 25 23 23 24
11 13 11 16 15 16 15 16 16 18 18 19 17 18 17 17 19 24 24 25 21 20 15 19 18 16 17 16 17 17 18 18 16 16 16 15 14 15 18 24 23 20 18
11 10 15 16 12 16 17 17 16 14 16 17 18 19 21 20 22 22 24 22 19 20 16 16 15 15 15 17 17 17 17 17 16 17 16 14 13 13 13 15 17 20 18
11 14 15 13 17 16 16 15 19 24 15 14 15 18 19 19 20 22 22 19 17 16 16 15 15 15 16 18 17 17 17 18 19 17 16 15 14 13 13 12 13 11 8
11 11 12 16 15 15 16 12 15 15 20 23 20 18 17 17 20 21 20 17 16 15 15 15 16 18 18 18 19 18 19 19 19 17 16 16 15 13 12 11 13 14 13
12 12 16 11 15 15 16 14 14 15 16 19 24 22 19 20 20 18 15 15 15 15 17 17 18 19 20 20 20 20 20 20 19 20 18 16 16 15 14 14 14 15 16
12 10 13 16 18 15 13 13 14 15 15 16 17 18 24 24 13 20 17 17 16 17 21 18 20 21 21 21 22 22 22 21 21 20 19 19 19 17 16 15 14 13 13
11 12 16 18 14 13 13 14 14 14 15 16 19 20 20 20 19 19 19 18 17 19 20 21 21 22 22 21 21 21 22 23 22 22 22 21 20 18 18 18 18 18 17
9 14 15 15 13 14 14 12 15 15 16 17 21 21 20 22 20 21 21 21 21 20 19 20 21 23 21 23 23 23 24 24 25 24 24 23 23 22 21 20 20 20 19
12 16 14 15 15 13 14 13 15 16 17 18 19 21 22 22 23 23 23 24 24 22 21 21 22 24 25 26 26 25 25 26 28 29 29 29 26 24 23 21 20 17 17
15 12 13 14 15 13 15 14 15 15 16 18 20 21 22 24 25 26 27 27 26 25 24 23 22 23 25 27 29 29 29 30 28 34 33 21 23 23 17 18 20 21 21
12 11 13 13 14 16 15 14 16 16 19 20 22 22 26 27 27 28 27 28 28 27 27 25 23 23 24 27 29 29 30 27 31 34 31 25 24 20 24 23 23 22 22
9 12 14 14 15 14 14 16 17 19 21 23 24 27 27 28 29 29 30 28 27 28 26 23 23 23 24 27 30 30 28 30 34 28 26 24 22 23 23 24 25 23 23
Wind_Direction
232 268 288 310 319 316 311 309 308 309 311 309 306 302 302 300 301 298 293 288 279 277 274 267 266 265 264 264 262 261 262 260 267 280 280 283 285 285 288 291 293 290 294
232 256 285 307 314 312 310 312 313 311 311 301 303 300 298 298 298 295 286 279 274 271 270 269 266 266 263 261 258 257 256 257 260 273 277 280 279 282 282 285 287 288 289
238 270 296 304 306 304 305 307 306 304 301 298 295 295 295 292 290 288 282 280 276 273 271 266 265 262 259 257 253 252 254 255 256 262 271 275 278 281 281 283 284 284 289
237 271 289 300 303 303 303 303 302 300 297 299 299 299 291 293 290 285 281 278 280 279 278 271 267 262 259 257 253 248 248 252 255 260 267 272 273 278 276 280 282 284 290
253 277 291 298 298 296 297 297 299 302 304 306 302 298 296 296 288 284 285 285 284 282 282 272 271 268 266 263 255 249 244 246 249 253 259 264 266 270 267 274 275 285 286
255 282 292 293 293 295 294 296 301 305 309 308 301 300 302 300 293 288 290 290 287 280 287 289 287 287 278 273 271 254 244 235 239 240 249 252 257 255 261 261 269 281 286
274 285 288 293 295 293 298 304 307 311 311 306 310 311 309 308 298 294 295 296 293 293 296 294 291 289 289 287 277 265 261 258 251 239 242 245 250 248 250 253 256 262 272
278 285 293 291 299 300 305 308 315 310 308 312 315 315 312 312 303 301 297 297 300 300 297 296 292 293 295 294 278 262 255 251 253 255 256 256 253 256 259 255 259 268 278
279 287 293 302 303 304 308 310 307 308 311 315 315 312 313 314 315 307 305 300 297 297 295 298 297 300 297 297 297 301 256 250 254 250 251 257 260 261 259 252 247 252 265
294 299 301 302 304 307 305 304 307 310 311 315 309 316 318 313 324 313 309 301 300 301 301 298 304 307 301 299 302 300 290 285 252 247 246 250 256 260 261 260 256 246 253
295 302 307 318 316 306 304 306 309 314 315 310 316 320 322 321 315 316 313 309 307 304 309 307 305 310 303 306 304 306 300 299 285 248 238 240 244 248 252 253 252 249 254
300 313 323 324 319 310 309 316 322 319 312 315 316 316 319 317 319 314 315 310 309 313 314 306 303 303 313 309 313 308 312 314 312 284 240 231 234 237 241 244 247 249 246
306 319 323 327 325 324 319 320 320 319 316 313 302 297 301 306 317 317 313 311 311 308 309 305 309 316 314 315 316 318 323 327 322 310 289 243 239 241 241 243 248 252 252
317 325 327 324 323 332 332 321 316 315 312 300 293 288 296 298 307 317 312 314 308 314 309 314 323 323 320 320 323 327 328 327 323 330 330 313 321 247 233 236 240 252 250
322 323 322 324 330 330 324 320 316 312 304 302 312 309 311 309 312 314 321 321 323 322 338 344 339 332 326 327 324 324 326 327 330 329 323 318 318 329 244 234 236 242 251
319 318 323 324 334 329 324 320 320 315 313 313 315 317 319 316 320 323 325 328 331 326 350 342 324 321 321 320 321 321 324 325 324 324 322 323 321 321 319 323 248 229 239
315 318 320 323 326 324 322 317 320 325 323 320 321 325 323 324 327 327 332 333 334 332 339 324 319 320 318 317 315 316 316 318 321 317 311 316 319 317 316 310 305 307 287
319 316 313 317 319 318 314 322 320 317 320 322 328 330 326 326 326 336 333 336 333 335 328 321 318 317 315 313 314 313 314 315 316 313 318 316 313 309 309 303 295 284 276
330 325 322 329 329 323 323 321 315 312 310 313 321 329 331 326 324 334 336 330 319 316 322 319 316 313 312 313 313 314 314 312 314 315 311 306 307 305 298 297 295 296 286
333 328 333 334 328 330 320 316 312 310 310 312 310 312 322 323 329 330 326 321 317 313 325 317 316 315 315 315 316 315 313 312 311 308 304 303 300 295 287 285 284 281 278
332 333 331 332 331 324 314 311 309 311 312 311 310 322 328 335 325 317 314 314 309 313 322 321 319 316 318 318 316 313 309 307 307 304 301 298 294 286 286 280 276 272 269
336 331 337 337 330 322 318 323 324 318 315 315 319 326 333 330 322 316 312 311 318 318 317 317 317 318 314 314 315 310 305 302 303 302 298 295 292 284 278 275 273 268 259
328 335 343 343 336 329 329 327 330 326 322 322 323 324 328 324 320 316 313 314 318 322 319 315 314 316 322 323 323 314 303 300 303 304 297 294 285 277 275 268 271 264 267
326 334 341 341 341 331 330 327 326 329 326 324 324 325 322 321 318 317 320 321 322 323 323 318 316 317 317 320 322 322 319 315 312 306 303 295 297 283 279 283 280 277 274
333 341 341 341 338 334 329 329 327 324 326 326 324 322 324 326 321 322 320 323 323 321 324 324 321 321 321 322 322 322 321 314 311 311 312 310 304 288 293 279 274 270 265
348 344 340 337 336 336 331 330 321 323 325 328 323 324 325 323 321 318 322 320 319 320 323 325 325 326 325 325 328 326 313 311 311 317 317 318 309 296 290 280 268 263 264
Height
805 806 806 807 807 807 807 807 807 805 803 802 802 801 799 798 797 796 796 795 793 791 790 789 788 788 787 785 784 783 781 779 771 758 761 760 756 754 751 748 743 740 734
800 802 802 803 803 804 803 803 803 801 800 800 799 797 795 794 793 791 789 788 786 784 783 782 780 780 778 776 775 772 771 770 767 753 754 752 750 748 744 740 737 732 727
797 798 799 799 800 800 800 799 799 799 797 796 795 793 790 789 788 785 783 781 779 776 775 774 771 770 767 765 763 761 761 759 757 750 744 745 742 740 737 733 728 724 719
795 795 796 796 797 797 796 796 796 796 794 792 789 787 786 784 781 779 777 773 770 767 765 763 761 760 757 753 751 750 749 749 747 742 739 736 734 732 731 726 720 718 711
792 792 793 794 795 795 793 794 793 792 789 786 784 782 780 777 775 772 768 764 761 758 755 754 751 748 745 743 741 739 739 739 737 733 730 728 725 725 723 720 715 711 705
790 790 791 792 792 791 791 790 788 786 783 781 780 777 773 771 769 765 762 757 755 751 749 746 743 739 735 731 728 726 724 724 723 722 719 717 714 715 714 712 709 706 699
788 788 788 788 788 788 787 785 783 779 778 777 773 770 766 764 761 758 754 751 748 745 742 737 734 730 726 721 716 715 713 712 710 708 706 703 702 705 705 703 702 699 694
786 786 785 785 784 783 782 780 776 776 774 771 766 763 760 757 754 751 747 744 741 737 733 730 726 722 718 713 708 703 700 699 697 698 697 695 694 696 697 696 695 692 688
784 783 783 782 781 779 777 774 774 771 768 764 761 758 755 751 747 745 742 738 734 730 726 723 720 715 711 705 700 695 689 684 683 685 686 685 685 687 687 687 684 684 678
781 781 781 780 777 773 772 771 769 766 762 760 757 754 750 746 743 740 736 733 729 725 720 716 713 709 703 698 694 688 683 678 674 674 674 674 674 674 675 675 674 672 672
779 779 777 774 771 770 769 767 764 760 758 755 753 749 745 742 738 736 732 728 724 719 714 710 706 702 697 691 687 681 677 672 667 664 662 663 663 664 665 664 665 664 663
776 775 772 770 768 767 765 762 759 757 754 751 748 744 740 737 734 731 727 723 719 714 709 705 700 695 690 685 680 676 671 665 660 656 655 653 653 653 653 653 654 654 653
773 771 769 767 766 764 761 758 755 753 751 747 744 740 735 732 729 726 722 718 714 709 705 700 694 690 686 681 677 672 667 663 658 652 649 647 645 643 645 646 646 646 645
770 768 766 765 763 760 757 755 753 750 747 744 740 736 732 728 724 720 715 711 707 704 699 694 691 687 683 678 674 669 665 661 656 652 648 644 641 638 637 637 638 638 636
768 766 765 763 759 756 754 751 749 746 744 739 737 733 729 724 721 716 712 707 702 699 693 690 687 684 680 675 671 667 663 658 654 650 646 642 638 634 630 630 630 631 631
766 764 762 759 756 753 750 746 745 743 740 737 734 730 726 722 716 712 708 703 699 696 692 689 686 682 678 674 669 664 660 656 653 649 645 641 637 633 629 626 623 623 623
764 761 759 757 754 751 748 746 741 736 736 734 731 727 722 718 714 709 705 701 698 694 691 688 684 680 676 672 667 663 658 654 651 647 643 639 636 632 629 626 624 622 620
761 759 756 753 751 749 746 744 742 738 732 727 726 724 720 716 711 707 703 699 695 692 690 686 682 678 673 669 665 661 656 652 648 644 640 637 634 631 627 625 622 620 618
758 756 753 752 750 747 744 742 739 736 733 729 722 718 716 712 708 705 702 698 694 690 687 683 679 675 671 667 663 658 654 649 645 641 637 634 631 628 625 622 619 616 613
756 755 752 750 747 745 742 740 737 735 731 728 724 720 713 708 705 701 698 695 691 688 684 680 676 672 668 664 659 655 650 646 641 638 634 630 627 624 621 619 616 613 610
754 752 751 748 745 743 741 738 735 733 729 725 721 717 713 708 704 699 695 691 688 684 680 676 672 669 665 660 656 652 647 642 638 634 629 625 622 619 616 614 611 609 607
753 751 748 746 744 741 738 736 734 730 727 723 718 714 710 705 701 696 692 688 684 680 677 673 669 665 661 657 653 648 643 638 633 629 624 620 616 612 609 607 605 602 600
751 749 747 744 742 739 736 734 731 729 725 721 717 712 707 703 698 693 688 683 679 675 672 668 664 660 656 652 648 644 639 633 628 623 618 612 608 604 601 598 597 594 593
749 747 745 742 740 737 735 732 730 727 724 720 715 711 706 701 696 690 685 680 675 671 667 663 659 656 651 647 642 637 632 627 622 616 611 605 601 596 594 592 589 587 586
747 745 743 740 737 735 732 730 727 725 721 717 713 708 703 698 692 687 681 676 671 666 661 657 654 650 646 641 636 631 625 620 616 610 603 599 594 590 587 583 580 577 576
745 743 741 738 735 733 731 728 725 722 718 714 710 705 700 695 689 683 677 672 667 662 657 652 649 645 641 636 630 623 619 614 607 602 597 592 588 583 579 574 570 567 565